This is the latest recevied weather packets stored in our database for station/object N9PBY-2. If no packets are shown the sender has not sent any weather packets the latest 10 day(s).
| Time | Temp. | Humidity | Pressure | Rain* | Wind** | Luminosity | Snow |
|---|---|---|---|---|---|---|---|
| 1777760407 | 8.33° C | 40% | 1015 hPa | 0 mm | - | - | - |
| 1777759807 | 8.89° C | 41% | 1015.1 hPa | 0 mm | - | - | - |
| 1777759207 | 8.33° C | 41% | 1015.2 hPa | 0 mm | - | - | - |
| 1777758607 | 7.78° C | 42% | 1015.3 hPa | 0 mm | - | - | - |
| 1777758006 | 8.33° C | 39% | 1015.4 hPa | 0 mm | - | - | - |
| 1777757406 | 8.89° C | 41% | 1015.4 hPa | 0 mm | - | - | - |
| 1777756807 | 8.89° C | 39% | 1015.4 hPa | 0 mm | - | - | - |
| 1777756206 | 8.89° C | 40% | 1015.5 hPa | 0 mm | - | - | - |
| 1777755607 | 8.33° C | 38% | 1015.7 hPa | 0 mm | - | - | - |
| 1777755007 | 7.78° C | 39% | 1015.7 hPa | 0 mm | - | - | - |
| 1777754407 | 8.33° C | 37% | 1015.9 hPa | 0 mm | - | - | - |
| 1777753807 | 8.89° C | 37% | 1016 hPa | 0 mm | - | - | - |
| 1777753207 | 10° C | 36% | 1016.1 hPa | 0 mm | - | - | - |
| 1777752607 | 10° C | 39% | 1016.2 hPa | 0 mm | - | - | - |
| 1777752007 | 10° C | 36% | 1016.3 hPa | 0 mm | - | - | - |
| 1777751406 | 10.56° C | 35% | 1016.5 hPa | 0 mm | - | - | - |
| 1777750806 | 10.56° C | 35% | 1016.7 hPa | 0 mm | - | - | - |
| 1777750207 | 10° C | 37% | 1016.8 hPa | 0 mm | - | - | - |
| 1777749607 | 10° C | 34% | 1016.8 hPa | 0 mm | - | - | - |
| 1777749007 | 10.56° C | 35% | 1016.9 hPa | 0 mm | - | - | - |
| 1777748407 | 11.11° C | 31% | 1016.9 hPa | 0 mm | - | - | - |
| 1777747807 | 11.67° C | 36% | 1017 hPa | 0 mm | - | - | - |
| 1777747207 | 12.22° C | 32% | 1017.2 hPa | 0 mm | - | - | - |
| 1777746607 | 12.78° C | 34% | 1017.3 hPa | 0 mm | - | - | - |
| 1777746006 | 12.22° C | 30% | 1017.2 hPa | 0 mm | - | - | - |
* Rain latest hour (hover to see other rain measurements)
** Current wind speed in m/s (hover to see current wind gust speed)